<?xml version="1.0" encoding="UTF-8" standalone="no" ?>
<gpx xmlns="http://www.topografix.com/GPX/1/1" xmlns:xsi="http://www.w3.org/2001/XMLSchema-instance" xsi:schemaLocation="http://www.topografix.com/GPX/1/1 http://www.topografix.com/GPX/1/1/gpx.xsd" version="1.1" creator="VisuGPX - https://www.visugpx.com">
  <metadata>
    <name>Bruniquel montée aux Abriols</name>
    <desc><![CDATA[Montées descentes un peu de plats.... oui du vrai VTT]]></desc>
  </metadata>
  <trk>
    <name><![CDATA[3 Bruniquel montee aux Abriols23kms]]></name>
    <trkseg>
      <trkpt lat="44.05607" lon="1.67043">
        <ele>100</ele>
        <time>2012-09-15T13:55:11Z</time>
      </trkpt>
      <trkpt lat="44.05576" lon="1.67045">
        <ele>102</ele>
        <time>2012-09-15T13:55:11Z</time>
      </trkpt>
      <trkpt lat="44.05549" lon="1.67025">
        <ele>100</ele>
        <time>2012-09-15T13:55:11Z</time>
      </trkpt>
      <trkpt lat="44.05492" lon="1.67024">
        <ele>100</ele>
        <time>2012-09-15T13:55:11Z</time>
      </trkpt>
      <trkpt lat="44.05428" lon="1.67026">
        <ele>100</ele>
        <time>2012-09-15T13:55:11Z</time>
      </trkpt>
      <trkpt lat="44.05386" lon="1.67042">
        <ele>101</ele>
        <time>2012-09-15T13:55:11Z</time>
      </trkpt>
      <trkpt lat="44.05356" lon="1.67076">
        <ele>101</ele>
        <time>2012-09-15T13:55:11Z</time>
      </trkpt>
      <trkpt lat="44.05306" lon="1.67126">
        <ele>101</ele>
        <time>2012-09-15T13:55:11Z</time>
      </trkpt>
      <trkpt lat="44.05268" lon="1.67144">
        <ele>100</ele>
        <time>2012-09-15T13:55:11Z</time>
      </trkpt>
      <trkpt lat="44.05221" lon="1.67149">
        <ele>99</ele>
        <time>2012-09-15T13:55:11Z</time>
      </trkpt>
      <trkpt lat="44.05189" lon="1.67155">
        <ele>99</ele>
        <time>2012-09-15T13:55:11Z</time>
      </trkpt>
      <trkpt lat="44.05177" lon="1.67165">
        <ele>100</ele>
        <time>2012-09-15T13:55:11Z</time>
      </trkpt>
      <trkpt lat="44.05181" lon="1.67224">
        <ele>104</ele>
        <time>2012-09-15T13:55:11Z</time>
      </trkpt>
      <trkpt lat="44.0518" lon="1.67252">
        <ele>108</ele>
        <time>2012-09-15T13:55:11Z</time>
      </trkpt>
      <trkpt lat="44.05136" lon="1.67264">
        <ele>110</ele>
        <time>2012-09-15T13:55:11Z</time>
      </trkpt>
      <trkpt lat="44.05109" lon="1.67292">
        <ele>115</ele>
        <time>2012-09-15T13:55:11Z</time>
      </trkpt>
      <trkpt lat="44.05039" lon="1.67391">
        <ele>115</ele>
        <time>2012-09-15T13:55:11Z</time>
      </trkpt>
      <trkpt lat="44.04977" lon="1.67457">
        <ele>118</ele>
        <time>2012-09-15T13:55:11Z</time>
      </trkpt>
      <trkpt lat="44.04904" lon="1.67453">
        <ele>117</ele>
        <time>2012-09-15T13:55:11Z</time>
      </trkpt>
      <trkpt lat="44.0484" lon="1.67432">
        <ele>117</ele>
        <time>2012-09-15T13:55:11Z</time>
      </trkpt>
      <trkpt lat="44.04786" lon="1.67422">
        <ele>119</ele>
        <time>2012-09-15T13:55:11Z</time>
      </trkpt>
      <trkpt lat="44.04749" lon="1.67415">
        <ele>119</ele>
        <time>2012-09-15T13:55:11Z</time>
      </trkpt>
      <trkpt lat="44.04724" lon="1.67416">
        <ele>119</ele>
        <time>2012-09-15T13:55:11Z</time>
      </trkpt>
      <trkpt lat="44.04702" lon="1.67473">
        <ele>119</ele>
        <time>2012-09-15T13:55:11Z</time>
      </trkpt>
      <trkpt lat="44.04669" lon="1.67595">
        <ele>120</ele>
        <time>2012-09-15T13:55:11Z</time>
      </trkpt>
      <trkpt lat="44.04655" lon="1.67896">
        <ele>134</ele>
        <time>2012-09-15T13:55:11Z</time>
      </trkpt>
      <trkpt lat="44.04643" lon="1.68042">
        <ele>133</ele>
        <time>2012-09-15T13:55:11Z</time>
      </trkpt>
      <trkpt lat="44.04666" lon="1.68229">
        <ele>135</ele>
        <time>2012-09-15T13:55:11Z</time>
      </trkpt>
      <trkpt lat="44.04664" lon="1.68291">
        <ele>132</ele>
        <time>2012-09-15T13:55:11Z</time>
      </trkpt>
      <trkpt lat="44.04645" lon="1.68387">
        <ele>134</ele>
        <time>2012-09-15T13:55:11Z</time>
      </trkpt>
      <trkpt lat="44.0464" lon="1.68447">
        <ele>138</ele>
        <time>2012-09-15T13:55:11Z</time>
      </trkpt>
      <trkpt lat="44.0465" lon="1.68508">
        <ele>143</ele>
        <time>2012-09-15T13:55:11Z</time>
      </trkpt>
      <trkpt lat="44.04715" lon="1.68594">
        <ele>145</ele>
        <time>2012-09-15T13:55:11Z</time>
      </trkpt>
      <trkpt lat="44.04734" lon="1.68643">
        <ele>145</ele>
        <time>2012-09-15T13:55:11Z</time>
      </trkpt>
      <trkpt lat="44.04733" lon="1.6866">
        <ele>147</ele>
        <time>2012-09-15T13:55:11Z</time>
      </trkpt>
      <trkpt lat="44.04719" lon="1.68697">
        <ele>151</ele>
        <time>2012-09-15T13:55:11Z</time>
      </trkpt>
      <trkpt lat="44.04719" lon="1.68732">
        <ele>153</ele>
        <time>2012-09-15T13:55:11Z</time>
      </trkpt>
      <trkpt lat="44.04755" lon="1.68787">
        <ele>154</ele>
        <time>2012-09-15T13:55:11Z</time>
      </trkpt>
      <trkpt lat="44.04768" lon="1.68834">
        <ele>158</ele>
        <time>2012-09-15T13:55:11Z</time>
      </trkpt>
      <trkpt lat="44.04774" lon="1.68857">
        <ele>160</ele>
        <time>2012-09-15T13:55:11Z</time>
      </trkpt>
      <trkpt lat="44.04727" lon="1.68858">
        <ele>165</ele>
        <time>2012-09-15T13:55:11Z</time>
      </trkpt>
      <trkpt lat="44.0469" lon="1.68858">
        <ele>167</ele>
        <time>2012-09-15T13:55:11Z</time>
      </trkpt>
      <trkpt lat="44.04667" lon="1.68847">
        <ele>167</ele>
        <time>2012-09-15T13:55:11Z</time>
      </trkpt>
      <trkpt lat="44.04621" lon="1.68839">
        <ele>169</ele>
        <time>2012-09-15T13:55:11Z</time>
      </trkpt>
      <trkpt lat="44.04552" lon="1.68844">
        <ele>176</ele>
        <time>2012-09-15T13:55:11Z</time>
      </trkpt>
      <trkpt lat="44.04515" lon="1.68837">
        <ele>178</ele>
        <time>2012-09-15T13:55:11Z</time>
      </trkpt>
      <trkpt lat="44.04442" lon="1.68875">
        <ele>185</ele>
        <time>2012-09-15T13:55:11Z</time>
      </trkpt>
      <trkpt lat="44.04407" lon="1.68911">
        <ele>187</ele>
        <time>2012-09-15T13:55:11Z</time>
      </trkpt>
      <trkpt lat="44.04355" lon="1.68979">
        <ele>196</ele>
        <time>2012-09-15T13:55:11Z</time>
      </trkpt>
      <trkpt lat="44.04342" lon="1.69016">
        <ele>199</ele>
        <time>2012-09-15T13:55:11Z</time>
      </trkpt>
      <trkpt lat="44.04353" lon="1.69132">
        <ele>214</ele>
        <time>2012-09-15T13:55:11Z</time>
      </trkpt>
      <trkpt lat="44.04356" lon="1.69202">
        <ele>222</ele>
        <time>2012-09-15T13:55:11Z</time>
      </trkpt>
      <trkpt lat="44.04363" lon="1.69242">
        <ele>225</ele>
        <time>2012-09-15T13:55:11Z</time>
      </trkpt>
      <trkpt lat="44.04361" lon="1.69283">
        <ele>233</ele>
        <time>2012-09-15T13:55:11Z</time>
      </trkpt>
      <trkpt lat="44.04353" lon="1.69331">
        <ele>243</ele>
        <time>2012-09-15T13:55:11Z</time>
      </trkpt>
      <trkpt lat="44.04347" lon="1.69375">
        <ele>252</ele>
        <time>2012-09-15T13:55:11Z</time>
      </trkpt>
      <trkpt lat="44.04337" lon="1.6942">
        <ele>261</ele>
        <time>2012-09-15T13:55:11Z</time>
      </trkpt>
      <trkpt lat="44.04333" lon="1.69437">
        <ele>263</ele>
        <time>2012-09-15T13:55:11Z</time>
      </trkpt>
      <trkpt lat="44.04309" lon="1.69384">
        <ele>266</ele>
        <time>2012-09-15T13:55:11Z</time>
      </trkpt>
      <trkpt lat="44.04267" lon="1.69321">
        <ele>278</ele>
        <time>2012-09-15T13:55:11Z</time>
      </trkpt>
      <trkpt lat="44.04214" lon="1.69295">
        <ele>289</ele>
        <time>2012-09-15T13:55:11Z</time>
      </trkpt>
      <trkpt lat="44.04169" lon="1.69303">
        <ele>296</ele>
        <time>2012-09-15T13:55:11Z</time>
      </trkpt>
      <trkpt lat="44.04146" lon="1.69304">
        <ele>298</ele>
        <time>2012-09-15T13:55:11Z</time>
      </trkpt>
      <trkpt lat="44.04132" lon="1.69313">
        <ele>300</ele>
        <time>2012-09-15T13:55:11Z</time>
      </trkpt>
      <trkpt lat="44.04119" lon="1.69326">
        <ele>302</ele>
        <time>2012-09-15T13:55:11Z</time>
      </trkpt>
      <trkpt lat="44.04123" lon="1.69348">
        <ele>308</ele>
        <time>2012-09-15T13:55:11Z</time>
      </trkpt>
      <trkpt lat="44.04137" lon="1.69374">
        <ele>313</ele>
        <time>2012-09-15T13:55:11Z</time>
      </trkpt>
      <trkpt lat="44.04136" lon="1.6941">
        <ele>319</ele>
        <time>2012-09-15T13:55:11Z</time>
      </trkpt>
      <trkpt lat="44.04131" lon="1.69429">
        <ele>322</ele>
        <time>2012-09-15T13:55:11Z</time>
      </trkpt>
      <trkpt lat="44.04081" lon="1.69468">
        <ele>330</ele>
        <time>2012-09-15T13:55:11Z</time>
      </trkpt>
      <trkpt lat="44.04056" lon="1.69532">
        <ele>338</ele>
        <time>2012-09-15T13:55:11Z</time>
      </trkpt>
      <trkpt lat="44.04049" lon="1.69624">
        <ele>344</ele>
        <time>2012-09-15T13:55:11Z</time>
      </trkpt>
      <trkpt lat="44.04019" lon="1.69755">
        <ele>360</ele>
        <time>2012-09-15T13:55:11Z</time>
      </trkpt>
      <trkpt lat="44.03991" lon="1.6984">
        <ele>370</ele>
        <time>2012-09-15T13:55:11Z</time>
      </trkpt>
      <trkpt lat="44.03965" lon="1.69934">
        <ele>381</ele>
        <time>2012-09-15T13:55:11Z</time>
      </trkpt>
      <trkpt lat="44.03959" lon="1.69979">
        <ele>383</ele>
        <time>2012-09-15T13:55:11Z</time>
      </trkpt>
      <trkpt lat="44.03968" lon="1.70068">
        <ele>386</ele>
        <time>2012-09-15T13:55:11Z</time>
      </trkpt>
      <trkpt lat="44.03993" lon="1.70165">
        <ele>388</ele>
        <time>2012-09-15T13:55:11Z</time>
      </trkpt>
      <trkpt lat="44.0402" lon="1.70234">
        <ele>392</ele>
        <time>2012-09-15T13:55:11Z</time>
      </trkpt>
      <trkpt lat="44.04031" lon="1.70269">
        <ele>392</ele>
        <time>2012-09-15T13:55:11Z</time>
      </trkpt>
      <trkpt lat="44.03984" lon="1.70321">
        <ele>395</ele>
        <time>2012-09-15T13:55:11Z</time>
      </trkpt>
      <trkpt lat="44.03924" lon="1.70392">
        <ele>401</ele>
        <time>2012-09-15T13:55:11Z</time>
      </trkpt>
      <trkpt lat="44.03904" lon="1.70444">
        <ele>404</ele>
        <time>2012-09-15T13:55:11Z</time>
      </trkpt>
      <trkpt lat="44.03864" lon="1.70503">
        <ele>407</ele>
        <time>2012-09-15T13:55:11Z</time>
      </trkpt>
      <trkpt lat="44.03846" lon="1.70513">
        <ele>408</ele>
        <time>2012-09-15T13:55:11Z</time>
      </trkpt>
      <trkpt lat="44.0382" lon="1.70515">
        <ele>409</ele>
        <time>2012-09-15T13:55:11Z</time>
      </trkpt>
      <trkpt lat="44.038" lon="1.70548">
        <ele>411</ele>
        <time>2012-09-15T13:55:11Z</time>
      </trkpt>
      <trkpt lat="44.03788" lon="1.70567">
        <ele>411</ele>
        <time>2012-09-15T13:55:11Z</time>
      </trkpt>
      <trkpt lat="44.0378" lon="1.70584">
        <ele>412</ele>
        <time>2012-09-15T13:55:11Z</time>
      </trkpt>
      <trkpt lat="44.03798" lon="1.7063">
        <ele>410</ele>
        <time>2012-09-15T13:55:11Z</time>
      </trkpt>
      <trkpt lat="44.038" lon="1.7071">
        <ele>408</ele>
        <time>2012-09-15T13:55:11Z</time>
      </trkpt>
      <trkpt lat="44.03808" lon="1.70802">
        <ele>406</ele>
        <time>2012-09-15T13:55:11Z</time>
      </trkpt>
      <trkpt lat="44.03799" lon="1.70876">
        <ele>408</ele>
        <time>2012-09-15T13:55:11Z</time>
      </trkpt>
      <trkpt lat="44.03774" lon="1.70975">
        <ele>412</ele>
        <time>2012-09-15T13:55:11Z</time>
      </trkpt>
      <trkpt lat="44.03749" lon="1.71089">
        <ele>417</ele>
        <time>2012-09-15T13:55:11Z</time>
      </trkpt>
      <trkpt lat="44.03733" lon="1.71217">
        <ele>419</ele>
        <time>2012-09-15T13:55:11Z</time>
      </trkpt>
      <trkpt lat="44.03717" lon="1.71323">
        <ele>419</ele>
        <time>2012-09-15T13:55:11Z</time>
      </trkpt>
      <trkpt lat="44.03703" lon="1.71396">
        <ele>416</ele>
        <time>2012-09-15T13:55:11Z</time>
      </trkpt>
      <trkpt lat="44.03705" lon="1.71449">
        <ele>416</ele>
        <time>2012-09-15T13:55:11Z</time>
      </trkpt>
      <trkpt lat="44.03747" lon="1.71567">
        <ele>421</ele>
        <time>2012-09-15T13:55:11Z</time>
      </trkpt>
      <trkpt lat="44.03795" lon="1.71649">
        <ele>427</ele>
        <time>2012-09-15T13:55:11Z</time>
      </trkpt>
      <trkpt lat="44.03861" lon="1.71756">
        <ele>434</ele>
        <time>2012-09-15T13:55:11Z</time>
      </trkpt>
      <trkpt lat="44.03912" lon="1.71813">
        <ele>439</ele>
        <time>2012-09-15T13:55:11Z</time>
      </trkpt>
      <trkpt lat="44.03944" lon="1.71886">
        <ele>443</ele>
        <time>2012-09-15T13:55:11Z</time>
      </trkpt>
      <trkpt lat="44.03983" lon="1.7194">
        <ele>443</ele>
        <time>2012-09-15T13:55:11Z</time>
      </trkpt>
      <trkpt lat="44.04038" lon="1.72">
        <ele>441</ele>
        <time>2012-09-15T13:55:11Z</time>
      </trkpt>
      <trkpt lat="44.04055" lon="1.7205">
        <ele>440</ele>
        <time>2012-09-15T13:55:11Z</time>
      </trkpt>
      <trkpt lat="44.04054" lon="1.7207">
        <ele>440</ele>
        <time>2012-09-15T13:55:11Z</time>
      </trkpt>
      <trkpt lat="44.04053" lon="1.72101">
        <ele>439</ele>
        <time>2012-09-15T13:55:11Z</time>
      </trkpt>
      <trkpt lat="44.04071" lon="1.72173">
        <ele>437</ele>
        <time>2012-09-15T13:55:11Z</time>
      </trkpt>
      <trkpt lat="44.04095" lon="1.72191">
        <ele>437</ele>
        <time>2012-09-15T13:55:11Z</time>
      </trkpt>
      <trkpt lat="44.04143" lon="1.72231">
        <ele>438</ele>
        <time>2012-09-15T13:55:11Z</time>
      </trkpt>
      <trkpt lat="44.04185" lon="1.72274">
        <ele>440</ele>
        <time>2012-09-15T13:55:11Z</time>
      </trkpt>
      <trkpt lat="44.04208" lon="1.72293">
        <ele>440</ele>
        <time>2012-09-15T13:55:11Z</time>
      </trkpt>
      <trkpt lat="44.04256" lon="1.7228">
        <ele>441</ele>
        <time>2012-09-15T13:55:11Z</time>
      </trkpt>
      <trkpt lat="44.04326" lon="1.72251">
        <ele>436</ele>
        <time>2012-09-15T13:55:11Z</time>
      </trkpt>
      <trkpt lat="44.04364" lon="1.72235">
        <ele>430</ele>
        <time>2012-09-15T13:55:11Z</time>
      </trkpt>
      <trkpt lat="44.04386" lon="1.72219">
        <ele>426</ele>
        <time>2012-09-15T13:55:11Z</time>
      </trkpt>
      <trkpt lat="44.04394" lon="1.72207">
        <ele>423</ele>
        <time>2012-09-15T13:55:11Z</time>
      </trkpt>
      <trkpt lat="44.04417" lon="1.72183">
        <ele>420</ele>
        <time>2012-09-15T13:55:11Z</time>
      </trkpt>
      <trkpt lat="44.04482" lon="1.72229">
        <ele>415</ele>
        <time>2012-09-15T13:55:11Z</time>
      </trkpt>
      <trkpt lat="44.0462" lon="1.72288">
        <ele>391</ele>
        <time>2012-09-15T13:55:11Z</time>
      </trkpt>
      <trkpt lat="44.04688" lon="1.72314">
        <ele>378</ele>
        <time>2012-09-15T13:55:11Z</time>
      </trkpt>
      <trkpt lat="44.04712" lon="1.72342">
        <ele>375</ele>
        <time>2012-09-15T13:55:11Z</time>
      </trkpt>
      <trkpt lat="44.04711" lon="1.72354">
        <ele>376</ele>
        <time>2012-09-15T13:55:11Z</time>
      </trkpt>
      <trkpt lat="44.04709" lon="1.7239">
        <ele>379</ele>
        <time>2012-09-15T13:55:11Z</time>
      </trkpt>
      <trkpt lat="44.04745" lon="1.72471">
        <ele>383</ele>
        <time>2012-09-15T13:55:11Z</time>
      </trkpt>
      <trkpt lat="44.0479" lon="1.72539">
        <ele>381</ele>
        <time>2012-09-15T13:55:11Z</time>
      </trkpt>
      <trkpt lat="44.04823" lon="1.72603">
        <ele>377</ele>
        <time>2012-09-15T13:55:11Z</time>
      </trkpt>
      <trkpt lat="44.04841" lon="1.72619">
        <ele>376</ele>
        <time>2012-09-15T13:55:11Z</time>
      </trkpt>
      <trkpt lat="44.04914" lon="1.72614">
        <ele>374</ele>
        <time>2012-09-15T13:55:11Z</time>
      </trkpt>
      <trkpt lat="44.04985" lon="1.72612">
        <ele>369</ele>
        <time>2012-09-15T13:55:11Z</time>
      </trkpt>
      <trkpt lat="44.05014" lon="1.7258">
        <ele>364</ele>
        <time>2012-09-15T13:55:11Z</time>
      </trkpt>
      <trkpt lat="44.05034" lon="1.72535">
        <ele>363</ele>
        <time>2012-09-15T13:55:11Z</time>
      </trkpt>
      <trkpt lat="44.05049" lon="1.72516">
        <ele>365</ele>
        <time>2012-09-15T13:55:11Z</time>
      </trkpt>
      <trkpt lat="44.05068" lon="1.72486">
        <ele>367</ele>
        <time>2012-09-15T13:55:11Z</time>
      </trkpt>
      <trkpt lat="44.05073" lon="1.72475">
        <ele>369</ele>
        <time>2012-09-15T13:55:11Z</time>
      </trkpt>
      <trkpt lat="44.05073" lon="1.72455">
        <ele>369</ele>
        <time>2012-09-15T13:55:11Z</time>
      </trkpt>
      <trkpt lat="44.0509" lon="1.72433">
        <ele>372</ele>
        <time>2012-09-15T13:55:11Z</time>
      </trkpt>
      <trkpt lat="44.05109" lon="1.7242">
        <ele>376</ele>
        <time>2012-09-15T13:55:11Z</time>
      </trkpt>
      <trkpt lat="44.05127" lon="1.72398">
        <ele>381</ele>
        <time>2012-09-15T13:55:11Z</time>
      </trkpt>
      <trkpt lat="44.05151" lon="1.72309">
        <ele>386</ele>
        <time>2012-09-15T13:55:11Z</time>
      </trkpt>
      <trkpt lat="44.0518" lon="1.72225">
        <ele>393</ele>
        <time>2012-09-15T13:55:11Z</time>
      </trkpt>
      <trkpt lat="44.05211" lon="1.7219">
        <ele>397</ele>
        <time>2012-09-15T13:55:11Z</time>
      </trkpt>
      <trkpt lat="44.05268" lon="1.72179">
        <ele>400</ele>
        <time>2012-09-15T13:55:11Z</time>
      </trkpt>
      <trkpt lat="44.05333" lon="1.72197">
        <ele>402</ele>
        <time>2012-09-15T13:55:11Z</time>
      </trkpt>
      <trkpt lat="44.05396" lon="1.72261">
        <ele>405</ele>
        <time>2012-09-15T13:55:11Z</time>
      </trkpt>
      <trkpt lat="44.05491" lon="1.72362">
        <ele>403</ele>
        <time>2012-09-15T13:55:11Z</time>
      </trkpt>
      <trkpt lat="44.05548" lon="1.72406">
        <ele>398</ele>
        <time>2012-09-15T13:55:11Z</time>
      </trkpt>
      <trkpt lat="44.05628" lon="1.72474">
        <ele>391</ele>
        <time>2012-09-15T13:55:11Z</time>
      </trkpt>
      <trkpt lat="44.05688" lon="1.72542">
        <ele>386</ele>
        <time>2012-09-15T13:55:11Z</time>
      </trkpt>
      <trkpt lat="44.05716" lon="1.72585">
        <ele>384</ele>
        <time>2012-09-15T13:55:11Z</time>
      </trkpt>
      <trkpt lat="44.05747" lon="1.72647">
        <ele>383</ele>
        <time>2012-09-15T13:55:11Z</time>
      </trkpt>
      <trkpt lat="44.05773" lon="1.72681">
        <ele>380</ele>
        <time>2012-09-15T13:55:11Z</time>
      </trkpt>
      <trkpt lat="44.05781" lon="1.72697">
        <ele>378</ele>
        <time>2012-09-15T13:55:11Z</time>
      </trkpt>
      <trkpt lat="44.05816" lon="1.72695">
        <ele>375</ele>
        <time>2012-09-15T13:55:11Z</time>
      </trkpt>
      <trkpt lat="44.05841" lon="1.72701">
        <ele>375</ele>
        <time>2012-09-15T13:55:11Z</time>
      </trkpt>
      <trkpt lat="44.0587" lon="1.72761">
        <ele>370</ele>
        <time>2012-09-15T13:55:11Z</time>
      </trkpt>
      <trkpt lat="44.05893" lon="1.7278">
        <ele>368</ele>
        <time>2012-09-15T13:55:11Z</time>
      </trkpt>
      <trkpt lat="44.05941" lon="1.7279">
        <ele>366</ele>
        <time>2012-09-15T13:55:11Z</time>
      </trkpt>
      <trkpt lat="44.05979" lon="1.72791">
        <ele>363</ele>
        <time>2012-09-15T13:55:11Z</time>
      </trkpt>
      <trkpt lat="44.06016" lon="1.72806">
        <ele>357</ele>
        <time>2012-09-15T13:55:11Z</time>
      </trkpt>
      <trkpt lat="44.06056" lon="1.72773">
        <ele>353</ele>
        <time>2012-09-15T13:55:11Z</time>
      </trkpt>
      <trkpt lat="44.06098" lon="1.72695">
        <ele>357</ele>
        <time>2012-09-15T13:55:11Z</time>
      </trkpt>
      <trkpt lat="44.06124" lon="1.72621">
        <ele>358</ele>
        <time>2012-09-15T13:55:11Z</time>
      </trkpt>
      <trkpt lat="44.06145" lon="1.72542">
        <ele>354</ele>
        <time>2012-09-15T13:55:11Z</time>
      </trkpt>
      <trkpt lat="44.06157" lon="1.72509">
        <ele>352</ele>
        <time>2012-09-15T13:55:11Z</time>
      </trkpt>
      <trkpt lat="44.062" lon="1.72438">
        <ele>347</ele>
        <time>2012-09-15T13:55:11Z</time>
      </trkpt>
      <trkpt lat="44.06236" lon="1.72357">
        <ele>343</ele>
        <time>2012-09-15T13:55:11Z</time>
      </trkpt>
      <trkpt lat="44.06256" lon="1.72283">
        <ele>341</ele>
        <time>2012-09-15T13:55:11Z</time>
      </trkpt>
      <trkpt lat="44.06268" lon="1.7225">
        <ele>340</ele>
        <time>2012-09-15T13:55:11Z</time>
      </trkpt>
      <trkpt lat="44.06288" lon="1.72236">
        <ele>338</ele>
        <time>2012-09-15T13:55:11Z</time>
      </trkpt>
      <trkpt lat="44.06307" lon="1.72267">
        <ele>337</ele>
        <time>2012-09-15T13:55:11Z</time>
      </trkpt>
      <trkpt lat="44.06347" lon="1.72326">
        <ele>335</ele>
        <time>2012-09-15T13:55:11Z</time>
      </trkpt>
      <trkpt lat="44.06392" lon="1.72344">
        <ele>331</ele>
        <time>2012-09-15T13:55:11Z</time>
      </trkpt>
      <trkpt lat="44.06499" lon="1.72346">
        <ele>324</ele>
        <time>2012-09-15T13:55:11Z</time>
      </trkpt>
      <trkpt lat="44.06558" lon="1.72336">
        <ele>322</ele>
        <time>2012-09-15T13:55:11Z</time>
      </trkpt>
      <trkpt lat="44.06612" lon="1.72349">
        <ele>319</ele>
        <time>2012-09-15T13:55:11Z</time>
      </trkpt>
      <trkpt lat="44.06733" lon="1.72412">
        <ele>312</ele>
        <time>2012-09-15T13:55:11Z</time>
      </trkpt>
      <trkpt lat="44.06816" lon="1.72444">
        <ele>311</ele>
        <time>2012-09-15T13:55:11Z</time>
      </trkpt>
      <trkpt lat="44.06911" lon="1.72504">
        <ele>309</ele>
        <time>2012-09-15T13:55:11Z</time>
      </trkpt>
      <trkpt lat="44.0701" lon="1.72549">
        <ele>304</ele>
        <time>2012-09-15T13:55:11Z</time>
      </trkpt>
      <trkpt lat="44.07068" lon="1.72555">
        <ele>300</ele>
        <time>2012-09-15T13:55:11Z</time>
      </trkpt>
      <trkpt lat="44.07115" lon="1.72568">
        <ele>298</ele>
        <time>2012-09-15T13:55:11Z</time>
      </trkpt>
      <trkpt lat="44.07132" lon="1.72585">
        <ele>297</ele>
        <time>2012-09-15T13:55:11Z</time>
      </trkpt>
      <trkpt lat="44.07145" lon="1.72604">
        <ele>297</ele>
        <time>2012-09-15T13:55:11Z</time>
      </trkpt>
      <trkpt lat="44.07281" lon="1.72559">
        <ele>292</ele>
        <time>2012-09-15T13:55:11Z</time>
      </trkpt>
      <trkpt lat="44.07378" lon="1.72519">
        <ele>276</ele>
        <time>2012-09-15T13:55:11Z</time>
      </trkpt>
      <trkpt lat="44.07447" lon="1.7251">
        <ele>264</ele>
        <time>2012-09-15T13:55:11Z</time>
      </trkpt>
      <trkpt lat="44.07491" lon="1.72505">
        <ele>258</ele>
        <time>2012-09-15T13:55:11Z</time>
      </trkpt>
      <trkpt lat="44.07522" lon="1.72506">
        <ele>254</ele>
        <time>2012-09-15T13:55:11Z</time>
      </trkpt>
      <trkpt lat="44.07537" lon="1.72516">
        <ele>253</ele>
        <time>2012-09-15T13:55:11Z</time>
      </trkpt>
      <trkpt lat="44.07556" lon="1.72533">
        <ele>251</ele>
        <time>2012-09-15T13:55:11Z</time>
      </trkpt>
      <trkpt lat="44.07564" lon="1.72536">
        <ele>250</ele>
        <time>2012-09-15T13:55:11Z</time>
      </trkpt>
      <trkpt lat="44.07575" lon="1.72514">
        <ele>246</ele>
        <time>2012-09-15T13:55:11Z</time>
      </trkpt>
      <trkpt lat="44.07574" lon="1.72489">
        <ele>244</ele>
        <time>2012-09-15T13:55:11Z</time>
      </trkpt>
      <trkpt lat="44.07561" lon="1.72462">
        <ele>241</ele>
        <time>2012-09-15T13:55:11Z</time>
      </trkpt>
      <trkpt lat="44.07539" lon="1.72433">
        <ele>238</ele>
        <time>2012-09-15T13:55:11Z</time>
      </trkpt>
      <trkpt lat="44.07526" lon="1.72424">
        <ele>237</ele>
        <time>2012-09-15T13:55:11Z</time>
      </trkpt>
      <trkpt lat="44.07569" lon="1.72408">
        <ele>230</ele>
        <time>2012-09-15T13:55:11Z</time>
      </trkpt>
      <trkpt lat="44.07609" lon="1.7239">
        <ele>222</ele>
        <time>2012-09-15T13:55:11Z</time>
      </trkpt>
      <trkpt lat="44.07641" lon="1.7239">
        <ele>218</ele>
        <time>2012-09-15T13:55:11Z</time>
      </trkpt>
      <trkpt lat="44.07653" lon="1.72401">
        <ele>218</ele>
        <time>2012-09-15T13:55:11Z</time>
      </trkpt>
      <trkpt lat="44.0766" lon="1.72433">
        <ele>220</ele>
        <time>2012-09-15T13:55:11Z</time>
      </trkpt>
      <trkpt lat="44.07669" lon="1.72453">
        <ele>217</ele>
        <time>2012-09-15T13:55:11Z</time>
      </trkpt>
      <trkpt lat="44.077" lon="1.72447">
        <ele>206</ele>
        <time>2012-09-15T13:55:11Z</time>
      </trkpt>
      <trkpt lat="44.07719" lon="1.72431">
        <ele>201</ele>
        <time>2012-09-15T13:55:11Z</time>
      </trkpt>
      <trkpt lat="44.07727" lon="1.72409">
        <ele>199</ele>
        <time>2012-09-15T13:55:11Z</time>
      </trkpt>
      <trkpt lat="44.0773" lon="1.7235">
        <ele>198</ele>
        <time>2012-09-15T13:55:11Z</time>
      </trkpt>
      <trkpt lat="44.07728" lon="1.72298">
        <ele>192</ele>
        <time>2012-09-15T13:55:11Z</time>
      </trkpt>
      <trkpt lat="44.07724" lon="1.72264">
        <ele>185</ele>
        <time>2012-09-15T13:55:11Z</time>
      </trkpt>
      <trkpt lat="44.07707" lon="1.72235">
        <ele>181</ele>
        <time>2012-09-15T13:55:11Z</time>
      </trkpt>
      <trkpt lat="44.07691" lon="1.72218">
        <ele>178</ele>
        <time>2012-09-15T13:55:11Z</time>
      </trkpt>
      <trkpt lat="44.07679" lon="1.72204">
        <ele>176</ele>
        <time>2012-09-15T13:55:11Z</time>
      </trkpt>
      <trkpt lat="44.07668" lon="1.7219">
        <ele>174</ele>
        <time>2012-09-15T13:55:11Z</time>
      </trkpt>
      <trkpt lat="44.07664" lon="1.72181">
        <ele>173</ele>
        <time>2012-09-15T13:55:11Z</time>
      </trkpt>
      <trkpt lat="44.07673" lon="1.72163">
        <ele>170</ele>
        <time>2012-09-15T13:55:11Z</time>
      </trkpt>
      <trkpt lat="44.07687" lon="1.72159">
        <ele>168</ele>
        <time>2012-09-15T13:55:11Z</time>
      </trkpt>
      <trkpt lat="44.07722" lon="1.72186">
        <ele>171</ele>
        <time>2012-09-15T13:55:11Z</time>
      </trkpt>
      <trkpt lat="44.07766" lon="1.72223">
        <ele>171</ele>
        <time>2012-09-15T13:55:11Z</time>
      </trkpt>
      <trkpt lat="44.07817" lon="1.72277">
        <ele>169</ele>
        <time>2012-09-15T13:55:11Z</time>
      </trkpt>
      <trkpt lat="44.07837" lon="1.72302">
        <ele>166</ele>
        <time>2012-09-15T13:55:11Z</time>
      </trkpt>
      <trkpt lat="44.07844" lon="1.72328">
        <ele>161</ele>
        <time>2012-09-15T13:55:11Z</time>
      </trkpt>
      <trkpt lat="44.07836" lon="1.72355">
        <ele>163</ele>
        <time>2012-09-15T13:55:11Z</time>
      </trkpt>
      <trkpt lat="44.07823" lon="1.724">
        <ele>156</ele>
        <time>2012-09-15T13:55:11Z</time>
      </trkpt>
      <trkpt lat="44.07818" lon="1.72417">
        <ele>153</ele>
        <time>2012-09-15T13:55:11Z</time>
      </trkpt>
      <trkpt lat="44.07805" lon="1.72461">
        <ele>147</ele>
        <time>2012-09-15T13:55:11Z</time>
      </trkpt>
      <trkpt lat="44.07801" lon="1.72491">
        <ele>142</ele>
        <time>2012-09-15T13:55:11Z</time>
      </trkpt>
      <trkpt lat="44.078" lon="1.725">
        <ele>141</ele>
        <time>2012-09-15T13:55:11Z</time>
      </trkpt>
      <trkpt lat="44.078" lon="1.72521">
        <ele>137</ele>
        <time>2012-09-15T13:55:11Z</time>
      </trkpt>
      <trkpt lat="44.078" lon="1.72525">
        <ele>137</ele>
        <time>2012-09-15T13:55:11Z</time>
      </trkpt>
      <trkpt lat="44.0781" lon="1.7253">
        <ele>134</ele>
        <time>2012-09-15T13:55:11Z</time>
      </trkpt>
      <trkpt lat="44.0783" lon="1.7253">
        <ele>131</ele>
        <time>2012-09-15T13:55:11Z</time>
      </trkpt>
      <trkpt lat="44.07831" lon="1.72514">
        <ele>131</ele>
        <time>2012-09-15T13:55:11Z</time>
      </trkpt>
      <trkpt lat="44.07841" lon="1.72487">
        <ele>126</ele>
        <time>2012-09-15T13:55:11Z</time>
      </trkpt>
      <trkpt lat="44.07854" lon="1.72453">
        <ele>129</ele>
        <time>2012-09-15T13:55:11Z</time>
      </trkpt>
      <trkpt lat="44.07869" lon="1.72442">
        <ele>127</ele>
        <time>2012-09-15T13:55:11Z</time>
      </trkpt>
      <trkpt lat="44.07884" lon="1.72442">
        <ele>123</ele>
        <time>2012-09-15T13:55:11Z</time>
      </trkpt>
      <trkpt lat="44.07902" lon="1.72445">
        <ele>120</ele>
        <time>2012-09-15T13:55:11Z</time>
      </trkpt>
      <trkpt lat="44.07919" lon="1.72444">
        <ele>120</ele>
        <time>2012-09-15T13:55:11Z</time>
      </trkpt>
      <trkpt lat="44.07949" lon="1.72438">
        <ele>117</ele>
        <time>2012-09-15T13:55:11Z</time>
      </trkpt>
      <trkpt lat="44.0797" lon="1.72438">
        <ele>115</ele>
        <time>2012-09-15T13:55:11Z</time>
      </trkpt>
      <trkpt lat="44.07971" lon="1.72536">
        <ele>127</ele>
        <time>2012-09-15T13:55:11Z</time>
      </trkpt>
      <trkpt lat="44.07968" lon="1.72614">
        <ele>127</ele>
        <time>2012-09-15T13:55:11Z</time>
      </trkpt>
      <trkpt lat="44.07967" lon="1.7264">
        <ele>125</ele>
        <time>2012-09-15T13:55:11Z</time>
      </trkpt>
      <trkpt lat="44.07974" lon="1.72676">
        <ele>118</ele>
        <time>2012-09-15T13:55:11Z</time>
      </trkpt>
      <trkpt lat="44.08046" lon="1.72724">
        <ele>110</ele>
        <time>2012-09-15T13:55:11Z</time>
      </trkpt>
      <trkpt lat="44.08139" lon="1.72777">
        <ele>115</ele>
        <time>2012-09-15T13:55:11Z</time>
      </trkpt>
      <trkpt lat="44.0819" lon="1.72811">
        <ele>124</ele>
        <time>2012-09-15T13:55:11Z</time>
      </trkpt>
      <trkpt lat="44.08272" lon="1.72935">
        <ele>133</ele>
        <time>2012-09-15T13:55:11Z</time>
      </trkpt>
      <trkpt lat="44.08333" lon="1.73042">
        <ele>137</ele>
        <time>2012-09-15T13:55:11Z</time>
      </trkpt>
      <trkpt lat="44.08371" lon="1.73105">
        <ele>142</ele>
        <time>2012-09-15T13:55:11Z</time>
      </trkpt>
      <trkpt lat="44.08392" lon="1.73169">
        <ele>142</ele>
        <time>2012-09-15T13:55:11Z</time>
      </trkpt>
      <trkpt lat="44.08439" lon="1.73239">
        <ele>146</ele>
        <time>2012-09-15T13:55:11Z</time>
      </trkpt>
      <trkpt lat="44.08465" lon="1.73285">
        <ele>147</ele>
        <time>2012-09-15T13:55:11Z</time>
      </trkpt>
      <trkpt lat="44.08492" lon="1.733">
        <ele>150</ele>
        <time>2012-09-15T13:55:11Z</time>
      </trkpt>
      <trkpt lat="44.08514" lon="1.73306">
        <ele>153</ele>
        <time>2012-09-15T13:55:11Z</time>
      </trkpt>
      <trkpt lat="44.08563" lon="1.73256">
        <ele>164</ele>
        <time>2012-09-15T13:55:11Z</time>
      </trkpt>
      <trkpt lat="44.08604" lon="1.73182">
        <ele>169</ele>
        <time>2012-09-15T13:55:11Z</time>
      </trkpt>
      <trkpt lat="44.08616" lon="1.7314">
        <ele>174</ele>
        <time>2012-09-15T13:55:11Z</time>
      </trkpt>
      <trkpt lat="44.08585" lon="1.73061">
        <ele>185</ele>
        <time>2012-09-15T13:55:11Z</time>
      </trkpt>
      <trkpt lat="44.08548" lon="1.72986">
        <ele>193</ele>
        <time>2012-09-15T13:55:11Z</time>
      </trkpt>
      <trkpt lat="44.08517" lon="1.7291">
        <ele>202</ele>
        <time>2012-09-15T13:55:11Z</time>
      </trkpt>
      <trkpt lat="44.08495" lon="1.72856">
        <ele>207</ele>
        <time>2012-09-15T13:55:11Z</time>
      </trkpt>
      <trkpt lat="44.08481" lon="1.72799">
        <ele>216</ele>
        <time>2012-09-15T13:55:11Z</time>
      </trkpt>
      <trkpt lat="44.08466" lon="1.72775">
        <ele>217</ele>
        <time>2012-09-15T13:55:11Z</time>
      </trkpt>
      <trkpt lat="44.08445" lon="1.72751">
        <ele>217</ele>
        <time>2012-09-15T13:55:11Z</time>
      </trkpt>
      <trkpt lat="44.08437" lon="1.7274">
        <ele>218</ele>
        <time>2012-09-15T13:55:11Z</time>
      </trkpt>
      <trkpt lat="44.08419" lon="1.72723">
        <ele>215</ele>
        <time>2012-09-15T13:55:11Z</time>
      </trkpt>
      <trkpt lat="44.08419" lon="1.72696">
        <ele>219</ele>
        <time>2012-09-15T13:55:11Z</time>
      </trkpt>
      <trkpt lat="44.08435" lon="1.72696">
        <ele>224</ele>
        <time>2012-09-15T13:55:11Z</time>
      </trkpt>
      <trkpt lat="44.08472" lon="1.72739">
        <ele>226</ele>
        <time>2012-09-15T13:55:11Z</time>
      </trkpt>
      <trkpt lat="44.08501" lon="1.7275">
        <ele>229</ele>
        <time>2012-09-15T13:55:11Z</time>
      </trkpt>
      <trkpt lat="44.08527" lon="1.72757">
        <ele>232</ele>
        <time>2012-09-15T13:55:11Z</time>
      </trkpt>
      <trkpt lat="44.0854" lon="1.72781">
        <ele>231</ele>
        <time>2012-09-15T13:55:11Z</time>
      </trkpt>
      <trkpt lat="44.08555" lon="1.72802">
        <ele>230</ele>
        <time>2012-09-15T13:55:11Z</time>
      </trkpt>
      <trkpt lat="44.08574" lon="1.72787">
        <ele>238</ele>
        <time>2012-09-15T13:55:11Z</time>
      </trkpt>
      <trkpt lat="44.08566" lon="1.72752">
        <ele>242</ele>
        <time>2012-09-15T13:55:11Z</time>
      </trkpt>
      <trkpt lat="44.08535" lon="1.72714">
        <ele>243</ele>
        <time>2012-09-15T13:55:11Z</time>
      </trkpt>
      <trkpt lat="44.08501" lon="1.72661">
        <ele>247</ele>
        <time>2012-09-15T13:55:11Z</time>
      </trkpt>
      <trkpt lat="44.08455" lon="1.72542">
        <ele>254</ele>
        <time>2012-09-15T13:55:11Z</time>
      </trkpt>
      <trkpt lat="44.08447" lon="1.72467">
        <ele>261</ele>
        <time>2012-09-15T13:55:11Z</time>
      </trkpt>
      <trkpt lat="44.08439" lon="1.72389">
        <ele>260</ele>
        <time>2012-09-15T13:55:11Z</time>
      </trkpt>
      <trkpt lat="44.08451" lon="1.7232">
        <ele>266</ele>
        <time>2012-09-15T13:55:11Z</time>
      </trkpt>
      <trkpt lat="44.0845" lon="1.72273">
        <ele>270</ele>
        <time>2012-09-15T13:55:11Z</time>
      </trkpt>
      <trkpt lat="44.08421" lon="1.72208">
        <ele>272</ele>
        <time>2012-09-15T13:55:11Z</time>
      </trkpt>
      <trkpt lat="44.08378" lon="1.72129">
        <ele>280</ele>
        <time>2012-09-15T13:55:11Z</time>
      </trkpt>
      <trkpt lat="44.08346" lon="1.7208">
        <ele>281</ele>
        <time>2012-09-15T13:55:11Z</time>
      </trkpt>
      <trkpt lat="44.08323" lon="1.71971">
        <ele>277</ele>
        <time>2012-09-15T13:55:11Z</time>
      </trkpt>
      <trkpt lat="44.08318" lon="1.71894">
        <ele>276</ele>
        <time>2012-09-15T13:55:11Z</time>
      </trkpt>
      <trkpt lat="44.08313" lon="1.71843">
        <ele>276</ele>
        <time>2012-09-15T13:55:11Z</time>
      </trkpt>
      <trkpt lat="44.08255" lon="1.71739">
        <ele>274</ele>
        <time>2012-09-15T13:55:11Z</time>
      </trkpt>
      <trkpt lat="44.08227" lon="1.71693">
        <ele>275</ele>
        <time>2012-09-15T13:55:11Z</time>
      </trkpt>
      <trkpt lat="44.08192" lon="1.71621">
        <ele>277</ele>
        <time>2012-09-15T13:55:11Z</time>
      </trkpt>
      <trkpt lat="44.08181" lon="1.71528">
        <ele>279</ele>
        <time>2012-09-15T13:55:11Z</time>
      </trkpt>
      <trkpt lat="44.08198" lon="1.71367">
        <ele>281</ele>
        <time>2012-09-15T13:55:11Z</time>
      </trkpt>
      <trkpt lat="44.08221" lon="1.71253">
        <ele>282</ele>
        <time>2012-09-15T13:55:11Z</time>
      </trkpt>
      <trkpt lat="44.08275" lon="1.71065">
        <ele>290</ele>
        <time>2012-09-15T13:55:11Z</time>
      </trkpt>
      <trkpt lat="44.08305" lon="1.70948">
        <ele>297</ele>
        <time>2012-09-15T13:55:11Z</time>
      </trkpt>
      <trkpt lat="44.08312" lon="1.70875">
        <ele>300</ele>
        <time>2012-09-15T13:55:11Z</time>
      </trkpt>
      <trkpt lat="44.08344" lon="1.70825">
        <ele>300</ele>
        <time>2012-09-15T13:55:11Z</time>
      </trkpt>
      <trkpt lat="44.08375" lon="1.7076">
        <ele>300</ele>
        <time>2012-09-15T13:55:11Z</time>
      </trkpt>
      <trkpt lat="44.08382" lon="1.7071">
        <ele>301</ele>
        <time>2012-09-15T13:55:11Z</time>
      </trkpt>
      <trkpt lat="44.0837" lon="1.70472">
        <ele>300</ele>
        <time>2012-09-15T13:55:11Z</time>
      </trkpt>
      <trkpt lat="44.08375" lon="1.70408">
        <ele>294</ele>
        <time>2012-09-15T13:55:11Z</time>
      </trkpt>
      <trkpt lat="44.08374" lon="1.70278">
        <ele>286</ele>
        <time>2012-09-15T13:55:11Z</time>
      </trkpt>
      <trkpt lat="44.08378" lon="1.7021">
        <ele>283</ele>
        <time>2012-09-15T13:55:11Z</time>
      </trkpt>
      <trkpt lat="44.08375" lon="1.70137">
        <ele>276</ele>
        <time>2012-09-15T13:55:11Z</time>
      </trkpt>
      <trkpt lat="44.08362" lon="1.70063">
        <ele>267</ele>
        <time>2012-09-15T13:55:11Z</time>
      </trkpt>
      <trkpt lat="44.08343" lon="1.70012">
        <ele>261</ele>
        <time>2012-09-15T13:55:11Z</time>
      </trkpt>
      <trkpt lat="44.08333" lon="1.69962">
        <ele>256</ele>
        <time>2012-09-15T13:55:11Z</time>
      </trkpt>
      <trkpt lat="44.08332" lon="1.69886">
        <ele>253</ele>
        <time>2012-09-15T13:55:11Z</time>
      </trkpt>
      <trkpt lat="44.08338" lon="1.69761">
        <ele>257</ele>
        <time>2012-09-15T13:55:11Z</time>
      </trkpt>
      <trkpt lat="44.08357" lon="1.69731">
        <ele>257</ele>
        <time>2012-09-15T13:55:11Z</time>
      </trkpt>
      <trkpt lat="44.08403" lon="1.69619">
        <ele>262</ele>
        <time>2012-09-15T13:55:11Z</time>
      </trkpt>
      <trkpt lat="44.08435" lon="1.69585">
        <ele>264</ele>
        <time>2012-09-15T13:55:11Z</time>
      </trkpt>
      <trkpt lat="44.08451" lon="1.69557">
        <ele>265</ele>
        <time>2012-09-15T13:55:11Z</time>
      </trkpt>
      <trkpt lat="44.08451" lon="1.69514">
        <ele>267</ele>
        <time>2012-09-15T13:55:11Z</time>
      </trkpt>
      <trkpt lat="44.08423" lon="1.69492">
        <ele>268</ele>
        <time>2012-09-15T13:55:11Z</time>
      </trkpt>
      <trkpt lat="44.08396" lon="1.69435">
        <ele>270</ele>
        <time>2012-09-15T13:55:11Z</time>
      </trkpt>
      <trkpt lat="44.08378" lon="1.69393">
        <ele>271</ele>
        <time>2012-09-15T13:55:11Z</time>
      </trkpt>
      <trkpt lat="44.08368" lon="1.6936">
        <ele>271</ele>
        <time>2012-09-15T13:55:11Z</time>
      </trkpt>
      <trkpt lat="44.08376" lon="1.69284">
        <ele>271</ele>
        <time>2012-09-15T13:55:11Z</time>
      </trkpt>
      <trkpt lat="44.08394" lon="1.69173">
        <ele>272</ele>
        <time>2012-09-15T13:55:11Z</time>
      </trkpt>
      <trkpt lat="44.08401" lon="1.69096">
        <ele>272</ele>
        <time>2012-09-15T13:55:11Z</time>
      </trkpt>
      <trkpt lat="44.08405" lon="1.69025">
        <ele>271</ele>
        <time>2012-09-15T13:55:11Z</time>
      </trkpt>
      <trkpt lat="44.08403" lon="1.68968">
        <ele>271</ele>
        <time>2012-09-15T13:55:11Z</time>
      </trkpt>
      <trkpt lat="44.08235" lon="1.68858">
        <ele>267</ele>
        <time>2012-09-15T13:55:11Z</time>
      </trkpt>
      <trkpt lat="44.08144" lon="1.68809">
        <ele>267</ele>
        <time>2012-09-15T13:55:11Z</time>
      </trkpt>
      <trkpt lat="44.08066" lon="1.6879">
        <ele>267</ele>
        <time>2012-09-15T13:55:11Z</time>
      </trkpt>
      <trkpt lat="44.08024" lon="1.68786">
        <ele>268</ele>
        <time>2012-09-15T13:55:11Z</time>
      </trkpt>
      <trkpt lat="44.07945" lon="1.68732">
        <ele>266</ele>
        <time>2012-09-15T13:55:11Z</time>
      </trkpt>
      <trkpt lat="44.07887" lon="1.68686">
        <ele>265</ele>
        <time>2012-09-15T13:55:11Z</time>
      </trkpt>
      <trkpt lat="44.0786" lon="1.68641">
        <ele>264</ele>
        <time>2012-09-15T13:55:11Z</time>
      </trkpt>
      <trkpt lat="44.07802" lon="1.68609">
        <ele>262</ele>
        <time>2012-09-15T13:55:11Z</time>
      </trkpt>
      <trkpt lat="44.07756" lon="1.68583">
        <ele>258</ele>
        <time>2012-09-15T13:55:11Z</time>
      </trkpt>
      <trkpt lat="44.07722" lon="1.68549">
        <ele>254</ele>
        <time>2012-09-15T13:55:11Z</time>
      </trkpt>
      <trkpt lat="44.07633" lon="1.68477">
        <ele>250</ele>
        <time>2012-09-15T13:55:11Z</time>
      </trkpt>
      <trkpt lat="44.07605" lon="1.68444">
        <ele>250</ele>
        <time>2012-09-15T13:55:11Z</time>
      </trkpt>
      <trkpt lat="44.07478" lon="1.68318">
        <ele>247</ele>
        <time>2012-09-15T13:55:11Z</time>
      </trkpt>
      <trkpt lat="44.07378" lon="1.6814">
        <ele>245</ele>
        <time>2012-09-15T13:55:11Z</time>
      </trkpt>
      <trkpt lat="44.07317" lon="1.68066">
        <ele>245</ele>
        <time>2012-09-15T13:55:11Z</time>
      </trkpt>
      <trkpt lat="44.07295" lon="1.68047">
        <ele>244</ele>
        <time>2012-09-15T13:55:11Z</time>
      </trkpt>
      <trkpt lat="44.07251" lon="1.67993">
        <ele>244</ele>
        <time>2012-09-15T13:55:11Z</time>
      </trkpt>
      <trkpt lat="44.07194" lon="1.67925">
        <ele>243</ele>
        <time>2012-09-15T13:55:11Z</time>
      </trkpt>
      <trkpt lat="44.07141" lon="1.67889">
        <ele>238</ele>
        <time>2012-09-15T13:55:11Z</time>
      </trkpt>
      <trkpt lat="44.07108" lon="1.67833">
        <ele>239</ele>
        <time>2012-09-15T13:55:11Z</time>
      </trkpt>
      <trkpt lat="44.07043" lon="1.67675">
        <ele>229</ele>
        <time>2012-09-15T13:55:11Z</time>
      </trkpt>
      <trkpt lat="44.06981" lon="1.67515">
        <ele>221</ele>
        <time>2012-09-15T13:55:11Z</time>
      </trkpt>
      <trkpt lat="44.06933" lon="1.67397">
        <ele>214</ele>
        <time>2012-09-15T13:55:11Z</time>
      </trkpt>
      <trkpt lat="44.06911" lon="1.6733">
        <ele>215</ele>
        <time>2012-09-15T13:55:11Z</time>
      </trkpt>
      <trkpt lat="44.06876" lon="1.67262">
        <ele>214</ele>
        <time>2012-09-15T13:55:11Z</time>
      </trkpt>
      <trkpt lat="44.06852" lon="1.67236">
        <ele>212</ele>
        <time>2012-09-15T13:55:11Z</time>
      </trkpt>
      <trkpt lat="44.06782" lon="1.67168">
        <ele>209</ele>
        <time>2012-09-15T13:55:11Z</time>
      </trkpt>
      <trkpt lat="44.06737" lon="1.67154">
        <ele>205</ele>
        <time>2012-09-15T13:55:11Z</time>
      </trkpt>
      <trkpt lat="44.0669" lon="1.67121">
        <ele>205</ele>
        <time>2012-09-15T13:55:11Z</time>
      </trkpt>
      <trkpt lat="44.06662" lon="1.67101">
        <ele>202</ele>
        <time>2012-09-15T13:55:11Z</time>
      </trkpt>
      <trkpt lat="44.06567" lon="1.67019">
        <ele>184</ele>
        <time>2012-09-15T13:55:11Z</time>
      </trkpt>
      <trkpt lat="44.06478" lon="1.66963">
        <ele>176</ele>
        <time>2012-09-15T13:55:11Z</time>
      </trkpt>
      <trkpt lat="44.06432" lon="1.66951">
        <ele>169</ele>
        <time>2012-09-15T13:55:11Z</time>
      </trkpt>
      <trkpt lat="44.06377" lon="1.66972">
        <ele>168</ele>
        <time>2012-09-15T13:55:11Z</time>
      </trkpt>
      <trkpt lat="44.06314" lon="1.66986">
        <ele>164</ele>
        <time>2012-09-15T13:55:11Z</time>
      </trkpt>
      <trkpt lat="44.06234" lon="1.66951">
        <ele>158</ele>
        <time>2012-09-15T13:55:11Z</time>
      </trkpt>
      <trkpt lat="44.06188" lon="1.66922">
        <ele>166</ele>
        <time>2012-09-15T13:55:11Z</time>
      </trkpt>
      <trkpt lat="44.06157" lon="1.66926">
        <ele>165</ele>
        <time>2012-09-15T13:55:11Z</time>
      </trkpt>
      <trkpt lat="44.06112" lon="1.66947">
        <ele>162</ele>
        <time>2012-09-15T13:55:11Z</time>
      </trkpt>
      <trkpt lat="44.06095" lon="1.66947">
        <ele>158</ele>
        <time>2012-09-15T13:55:11Z</time>
      </trkpt>
      <trkpt lat="44.0607" lon="1.66924">
        <ele>151</ele>
        <time>2012-09-15T13:55:11Z</time>
      </trkpt>
      <trkpt lat="44.06058" lon="1.66916">
        <ele>149</ele>
        <time>2012-09-15T13:55:11Z</time>
      </trkpt>
      <trkpt lat="44.06017" lon="1.66921">
        <ele>143</ele>
        <time>2012-09-15T13:55:11Z</time>
      </trkpt>
      <trkpt lat="44.05988" lon="1.66926">
        <ele>139</ele>
        <time>2012-09-15T13:55:11Z</time>
      </trkpt>
      <trkpt lat="44.05952" lon="1.66939">
        <ele>136</ele>
        <time>2012-09-15T13:55:11Z</time>
      </trkpt>
      <trkpt lat="44.05906" lon="1.66923">
        <ele>128</ele>
        <time>2012-09-15T13:55:11Z</time>
      </trkpt>
      <trkpt lat="44.05851" lon="1.66912">
        <ele>122</ele>
        <time>2012-09-15T13:55:11Z</time>
      </trkpt>
      <trkpt lat="44.05808" lon="1.66913">
        <ele>117</ele>
        <time>2012-09-15T13:55:11Z</time>
      </trkpt>
      <trkpt lat="44.05783" lon="1.66905">
        <ele>113</ele>
        <time>2012-09-15T13:55:11Z</time>
      </trkpt>
      <trkpt lat="44.05751" lon="1.66907">
        <ele>108</ele>
        <time>2012-09-15T13:55:11Z</time>
      </trkpt>
      <trkpt lat="44.05739" lon="1.66929">
        <ele>106</ele>
        <time>2012-09-15T13:55:11Z</time>
      </trkpt>
      <trkpt lat="44.05739" lon="1.66932">
        <ele>106</ele>
        <time>2012-09-15T13:55:11Z</time>
      </trkpt>
      <trkpt lat="44.05713" lon="1.66954">
        <ele>102</ele>
        <time>2012-09-15T13:55:11Z</time>
      </trkpt>
      <trkpt lat="44.05687" lon="1.66955">
        <ele>100</ele>
        <time>2012-09-15T13:55:11Z</time>
      </trkpt>
      <trkpt lat="44.05661" lon="1.66957">
        <ele>97</ele>
        <time>2012-09-15T13:55:11Z</time>
      </trkpt>
      <trkpt lat="44.05645" lon="1.66954">
        <ele>97</ele>
        <time>2012-09-15T13:55:11Z</time>
      </trkpt>
      <trkpt lat="44.05634" lon="1.66954">
        <ele>97</ele>
        <time>2012-09-15T13:55:11Z</time>
      </trkpt>
      <trkpt lat="44.05627" lon="1.66955">
        <ele>97</ele>
        <time>2012-09-15T13:55:11Z</time>
      </trkpt>
      <trkpt lat="44.05631" lon="1.66994">
        <ele>98</ele>
        <time>2012-09-15T13:55:11Z</time>
      </trkpt>
      <trkpt lat="44.0563" lon="1.67013">
        <ele>98</ele>
        <time>2012-09-15T13:55:11Z</time>
      </trkpt>
      <trkpt lat="44.05632" lon="1.6704">
        <ele>99</ele>
        <time>2012-09-15T13:55:11Z</time>
      </trkpt>
      <trkpt lat="44.05624" lon="1.67058">
        <ele>101</ele>
        <time>2012-09-15T13:55:11Z</time>
      </trkpt>
      <trkpt lat="44.05616" lon="1.67074">
        <ele>102</ele>
        <time>2012-09-15T13:55:11Z</time>
      </trkpt>
      <trkpt lat="44.05598" lon="1.67088">
        <ele>105</ele>
        <time>2012-09-15T13:55:11Z</time>
      </trkpt>
      <trkpt lat="44.05587" lon="1.67093">
        <ele>107</ele>
        <time>2012-09-15T13:55:11Z</time>
      </trkpt>
      <trkpt lat="44.05579" lon="1.67099">
        <ele>108</ele>
        <time>2012-09-15T13:55:11Z</time>
      </trkpt>
      <trkpt lat="44.05575" lon="1.6709">
        <ele>106</ele>
        <time>2012-09-15T13:55:11Z</time>
      </trkpt>
      <trkpt lat="44.0558" lon="1.67074">
        <ele>104</ele>
        <time>2012-09-15T13:55:11Z</time>
      </trkpt>
      <trkpt lat="44.0559" lon="1.67068">
        <ele>103</ele>
        <time>2012-09-15T13:55:11Z</time>
      </trkpt>
      <trkpt lat="44.05596" lon="1.67065">
        <ele>102</ele>
        <time>2012-09-15T13:55:11Z</time>
      </trkpt>
      <trkpt lat="44.05603" lon="1.67061">
        <ele>102</ele>
        <time>2012-09-15T13:55:11Z</time>
      </trkpt>
      <trkpt lat="44.05614" lon="1.67055">
        <ele>101</ele>
        <time>2012-09-15T13:55:11Z</time>
      </trkpt>
      <trkpt lat="44.05616" lon="1.67044">
        <ele>100</ele>
        <time>2012-09-15T13:55:11Z</time>
      </trkpt>
      <trkpt lat="44.05611" lon="1.67029">
        <ele>99</ele>
        <time>2012-09-15T13:55:11Z</time>
      </trkpt>
      <trkpt lat="44.05598" lon="1.67027">
        <ele>99</ele>
        <time>2012-09-15T13:55:11Z</time>
      </trkpt>
      <trkpt lat="44.05584" lon="1.67027">
        <ele>100</ele>
        <time>2012-09-15T13:55:11Z</time>
      </trkpt>
      <trkpt lat="44.05571" lon="1.67015">
        <ele>100</ele>
        <time>2012-09-15T13:55:11Z</time>
      </trkpt>
      <trkpt lat="44.05564" lon="1.66993">
        <ele>100</ele>
        <time>2012-09-15T13:55:11Z</time>
      </trkpt>
      <trkpt lat="44.05549" lon="1.66945">
        <ele>100</ele>
        <time>2012-09-15T13:55:11Z</time>
      </trkpt>
      <trkpt lat="44.05493" lon="1.66866">
        <ele>108</ele>
        <time>2012-09-15T13:55:11Z</time>
      </trkpt>
      <trkpt lat="44.05451" lon="1.66812">
        <ele>118</ele>
        <time>2012-09-15T13:55:11Z</time>
      </trkpt>
      <trkpt lat="44.05426" lon="1.66764">
        <ele>121</ele>
        <time>2012-09-15T13:55:11Z</time>
      </trkpt>
      <trkpt lat="44.05412" lon="1.66737">
        <ele>126</ele>
        <time>2012-09-15T13:55:11Z</time>
      </trkpt>
      <trkpt lat="44.05406" lon="1.66646">
        <ele>136</ele>
        <time>2012-09-15T13:55:11Z</time>
      </trkpt>
      <trkpt lat="44.05405" lon="1.66572">
        <ele>136</ele>
        <time>2012-09-15T13:55:11Z</time>
      </trkpt>
      <trkpt lat="44.054" lon="1.66541">
        <ele>133</ele>
        <time>2012-09-15T13:55:11Z</time>
      </trkpt>
      <trkpt lat="44.05387" lon="1.66472">
        <ele>130</ele>
        <time>2012-09-15T13:55:11Z</time>
      </trkpt>
      <trkpt lat="44.05367" lon="1.66377">
        <ele>133</ele>
        <time>2012-09-15T13:55:11Z</time>
      </trkpt>
      <trkpt lat="44.05369" lon="1.66327">
        <ele>133</ele>
        <time>2012-09-15T13:55:11Z</time>
      </trkpt>
      <trkpt lat="44.05382" lon="1.66241">
        <ele>132</ele>
        <time>2012-09-15T13:55:11Z</time>
      </trkpt>
      <trkpt lat="44.05393" lon="1.66205">
        <ele>132</ele>
        <time>2012-09-15T13:55:11Z</time>
      </trkpt>
      <trkpt lat="44.05403" lon="1.66195">
        <ele>132</ele>
        <time>2012-09-15T13:55:11Z</time>
      </trkpt>
      <trkpt lat="44.05451" lon="1.66298">
        <ele>135</ele>
        <time>2012-09-15T13:55:11Z</time>
      </trkpt>
      <trkpt lat="44.05474" lon="1.66356">
        <ele>140</ele>
        <time>2012-09-15T13:55:11Z</time>
      </trkpt>
      <trkpt lat="44.05496" lon="1.66403">
        <ele>145</ele>
        <time>2012-09-15T13:55:11Z</time>
      </trkpt>
      <trkpt lat="44.05511" lon="1.66439">
        <ele>151</ele>
        <time>2012-09-15T13:55:11Z</time>
      </trkpt>
      <trkpt lat="44.05516" lon="1.66449">
        <ele>152</ele>
        <time>2012-09-15T13:55:11Z</time>
      </trkpt>
      <trkpt lat="44.05506" lon="1.6648">
        <ele>152</ele>
        <time>2012-09-15T13:55:11Z</time>
      </trkpt>
      <trkpt lat="44.05496" lon="1.66493">
        <ele>151</ele>
        <time>2012-09-15T13:55:11Z</time>
      </trkpt>
    </trkseg>
  </trk>
</gpx>